Tracking 31027 objects as of 19-Jul-2025
HD Live streaming from Space Station
objects crossing your sky now

HULIANWANG DIGUI-03

Track HULIANWANG DIGUI-03 now!
10-day predictions


NORAD ID: 62325
Int'l Code: 2024-240C
Perigee: 1,173.5 km
Apogee: 1,176.6 km
Inclination: 86.5 °
Period: 108.7 minutes
Semi major axis: 7546 km
RCS: Unknown
Launch date: December 16, 2024
Source: People's Republic of China (PRC)
Launch site: Wenchang Satellite Launch Center (WSC)
Your satellite tracking list
ARIANE 5 R/B
Track 1 satellite(s)




NASA's NSSDC Master Catalog

Two Line Element Set (TLE):
1 62325U 24240C   25199.89953614  .00000049  00000-0  79431-4 0  9992
2 62325  86.4948  95.6858 0002056  68.1951 291.9402 13.24413431 28523
Source of the keplerian elements: AFSPC